Bridgeport, CT

4:59 PM EDT on September 23, 2017 (GMT -0400)
Sikorsky Memorial

Weather History for KBDR - November, 2012

Change the Weather History Date:

Saturday, November 10, 2012

  Actual Average Record
Temperature  
Mean Temperature 48 °F 47 °F  
Max Temperature 55 °F 55 °F 69 °F (1977)
Min Temperature 40 °F 40 °F 24 °F (1956)
Degree Days  
Heating Degree Days 17 18  
Month to date heating degree days 215 164  
Since 1 July heating degree days 468 554  
Cooling Degree Days 0 0  
Month to date cooling degree days 0 0  
Year to date cooling degree days 1075 825  
Moisture  
Dew Point 38 °F    
Average Humidity 63    
Maximum Humidity 74    
Minimum Humidity 51    
Precipitation  
Precipitation T in 0.10 in 2.91 in (1948)
Month to date precipitation 0.70 1.06  
Year to date precipitation 36.15 37.08  
Snow  
Snow 0.00 in 0.10 in T in (1987)
Month to date snowfall 8.3 0.1  
Since 1 July snowfall 8.3 0.1  
Snow Depth 0.00 in    
Sea Level Pressure  
Sea Level Pressure 30.31 in    
Wind  
Wind Speed 4 mph (West)    
Max Wind Speed 13 mph    
Max Gust Speed 15 mph    
Visibility 9 miles    
Events      
T = Trace of Precipitation, MM = Missing Value Source: NWS Daily Summary

Daily Weather History Graph

Daily Weather History Graph

Search for Another Location

Airport or City:

Trip Planner

Search our weather history database for the weather conditions in past years. The results will help you decide how hot, cold, wet, or windy it might be!

Date:

Astronomy

Nov. 10, 2012 Rise Set
Actual Time 6:34 AM EST 4:37 PM EST
Civil Twilight 6:05 AM EST 5:06 PM EST
Nautical Twilight 5:32 AM EST 5:39 PM EST
Astronomical Twilight 5:00 AM EST 6:12 PM EST
Moon 2:34 AM EST (11/10) 2:24 PM EST (11/10)
Length of Visible Light 11h 01m
Length of Day
10h 02m
Waning Crescent, 14% of the Moon is Illuminated
Nov 10
Waning Crescent
Nov 13
New
Nov 20
First Quarter
Nov 28
Full
Dec 6
Last Quarter

Hourly Weather History & Observations

Time (EST) Temp. Windchill Dew Point Humidity Pressure Visibility Wind Dir Wind Speed Gust Speed Precip Events Conditions
12:52 AM 44.1 °F 41.5 °F 33.1 °F 65% 30.19 in 10.0 mi West 4.6 mph - N/A   Overcast
1:52 AM 43.0 °F 40.3 °F 33.1 °F 68% 30.19 in 10.0 mi West 4.6 mph - N/A   Mostly Cloudy
2:52 AM 42.1 °F 38.4 °F 33.1 °F 70% 30.20 in 10.0 mi WNW 5.8 mph - N/A   Clear
3:52 AM 41.0 °F 37.1 °F 33.1 °F 73% 30.21 in 10.0 mi West 5.8 mph - N/A   Clear
4:52 AM 41.0 °F 36.4 °F 34.0 °F 76% 30.23 in 10.0 mi WNW 6.9 mph - N/A   Clear
5:52 AM 41.0 °F - 33.1 °F 73% 30.25 in 10.0 mi Calm Calm - N/A   Clear
6:52 AM 41.0 °F 39.0 °F 34.0 °F 76% 30.28 in 9.0 mi WNW 3.5 mph - N/A   Clear
7:52 AM 45.0 °F 41.8 °F 35.1 °F 68% 30.30 in 9.0 mi WNW 5.8 mph - N/A   Overcast
8:52 AM 46.9 °F - 36.0 °F 66% 30.31 in 10.0 mi West 3.5 mph - 0.00 in   Partly Cloudy
9:52 AM 48.9 °F - 37.0 °F 64% 30.32 in 9.0 mi West 3.5 mph - N/A   Mostly Cloudy
10:52 AM 51.1 °F - 39.0 °F 63% 30.32 in 9.0 mi SW 6.9 mph - N/A   Partly Cloudy
11:52 AM 55.0 °F - 37.9 °F 53% 30.30 in 10.0 mi WNW 6.9 mph - N/A   Clear
12:52 PM 53.1 °F - 39.9 °F 61% 30.30 in 10.0 mi SW 9.2 mph - N/A   Partly Cloudy
1:52 PM 54.0 °F - 39.9 °F 59% 30.30 in 10.0 mi SW 10.4 mph - N/A   Partly Cloudy
2:52 PM 54.0 °F - 41.0 °F 62% 30.32 in 10.0 mi SW 11.5 mph - N/A   Mostly Cloudy
3:52 PM 53.1 °F - 39.9 °F 61% 30.33 in 10.0 mi SW 6.9 mph - N/A   Clear
4:52 PM 51.1 °F - 41.0 °F 68% 30.35 in 10.0 mi Calm Calm - N/A   Scattered Clouds
5:52 PM 51.1 °F - 43.0 °F 74% 30.37 in 9.0 mi Calm Calm - N/A   Overcast
6:52 PM 51.1 °F - 43.0 °F 74% 30.39 in 9.0 mi Calm Calm - N/A   Overcast
7:52 PM 51.1 °F - 42.1 °F 71% 30.39 in 9.0 mi Calm Calm - N/A   Overcast
8:52 PM 51.1 °F - 42.1 °F 71% 30.41 in 9.0 mi Calm Calm - N/A   Overcast
9:52 PM 50.0 °F - 42.1 °F 74% 30.42 in 8.0 mi Calm Calm - N/A   Overcast
10:52 PM 50.0 °F - 42.1 °F 74% 30.43 in 8.0 mi Calm Calm - N/A   Mostly Cloudy
11:52 PM 48.9 °F - 43.0 °F 80% 30.44 in 6.0 mi South 4.6 mph - N/A   Haze